DW6111 Rossendale UK current weather conditions

sailwx.info

Wind from 096

Air temperature 10.0° C
Dewpoint 9.2° C

Last reported at 2019-Aug-18 04:00 UTC.
Time now 2019-Aug-18 04:42 UTC

Location: N 53°40' W 002°10'.
View on Google Maps.

See reports from other nearby stations

  
Tides and Currents Weather Stations Pressure Air Temp Water Temp Dewpoint Dewpoint Depression Visibility Wind Speed Wind Dir Waves Ship Positions
date/time (UTC)wind fromknots sea level pressurealtimeterstation pressurevisibilityair tempwater tempwave heightnotes
2019-Aug-18 04:00 096 10.0
2019-Aug-18 03:45 084 10.0
2019-Aug-18 03:30 092 10.0
2019-Aug-18 03:17 093 9.4
2019-Aug-18 03:01 106 9.4
2019-Aug-18 02:47 101 9.4
2019-Aug-18 02:31 124 9.4
2019-Aug-18 02:17 079 9.4
2019-Aug-18 02:01 079 9.4
2019-Aug-18 01:47 087 8.9
2019-Aug-18 01:32 087 8.9
2019-Aug-18 01:16 086 9.4
2019-Aug-18 01:01 086 10.0
2019-Aug-18 00:46 097 10.0
2019-Aug-18 00:31 092 10.0
2019-Aug-18 00:16 061 10.0
2019-Aug-18 00:01 061 10.0
2019-Aug-17 23:45 061 10.6
2019-Aug-17 23:30 027 11.1
2019-Aug-17 23:16 080 11.1
2019-Aug-17 23:01 099 11.1
2019-Aug-17 22:46 068 11.7
2019-Aug-17 22:30 056 11.7
2019-Aug-17 22:15 211 11.7
2019-Aug-17 22:00 059 0 gusting 3 12.2
2019-Aug-17 21:45 043 0 gusting 5 12.2
2019-Aug-17 21:31 065 12.2
2019-Aug-17 21:16 095 0 gusting 4 12.8
2019-Aug-17 21:00 083 12.8
2019-Aug-17 20:45 087 1 gusting 6 12.8
2019-Aug-17 20:30 298 0 gusting 4 12.8
2019-Aug-17 20:16 083 0 gusting 2 13.3
2019-Aug-17 20:00 054 13.3
2019-Aug-17 19:45 026 1 gusting 8 13.9
2019-Aug-17 19:30 073 0 gusting 5 13.9
2019-Aug-17 19:15 063 0 gusting 6 14.4
2019-Aug-17 19:00 062 0 gusting 5 14.4
2019-Aug-17 18:45 074 0 gusting 6 15.0
2019-Aug-17 18:30 039 1 gusting 8 15.0
2019-Aug-17 18:15 291 1 gusting 6 15.6
2019-Aug-17 18:00 270 1 gusting 6 15.6
2019-Aug-17 17:45 296 3 gusting 7 16.1
2019-Aug-17 17:30 349 3 gusting 10 16.7
2019-Aug-17 17:15 298 1 gusting 10 16.1
2019-Aug-17 17:00 304 2 gusting 9 16.7
2019-Aug-17 16:45 288 3 gusting 10 16.7
2019-Aug-17 16:30 333 1 gusting 7 17.2
2019-Aug-17 16:15 307 1 gusting 9 17.2
2019-Aug-17 16:00 100 2 gusting 8 17.2
2019-Aug-17 15:45 295 2 gusting 7 17.2
2019-Aug-17 15:30 071 0 gusting 10 16.7
2019-Aug-17 15:15 077 2 gusting 6 16.7
2019-Aug-17 15:00 265 2 gusting 8 16.7
2019-Aug-17 14:46 353 2 gusting 8 16.7
2019-Aug-17 14:31 316 2 gusting 6 17.2
2019-Aug-17 14:17 046 2 gusting 9 17.2
2019-Aug-17 14:01 285 0 gusting 7 16.7
2019-Aug-17 13:46 108 3 gusting 8 17.2
2019-Aug-17 13:31 280 3 gusting 10 17.2
2019-Aug-17 13:16 145 2 gusting 7 16.7
2019-Aug-17 13:01 307 2 gusting 8 17.2
2019-Aug-17 12:47 278 0 gusting 6 16.1
2019-Aug-17 12:32 229 0 gusting 6 16.7
2019-Aug-17 12:17 239 2 gusting 6 15.6
2019-Aug-17 12:01 144 1 gusting 10 16.7
2019-Aug-17 11:46 288 3 gusting 7 16.7
2019-Aug-17 11:31 071 2 gusting 6 16.7
2019-Aug-17 11:17 033 2 gusting 7 16.7
2019-Aug-17 11:02 068 1 gusting 6 16.1
2019-Aug-17 10:45 304 1 gusting 9 16.1
2019-Aug-17 10:31 318 2 gusting 11 15.6
2019-Aug-17 10:17 060 3 gusting 12 15.0
2019-Aug-17 10:01 044 0 gusting 9 15.0
2019-Aug-17 09:46 117 1 gusting 8 13.9
2019-Aug-17 09:31 325 0 gusting 3 14.4
2019-Aug-17 09:15 076 0 gusting 5 14.4
2019-Aug-17 09:00 072 2 gusting 7 14.4
2019-Aug-17 08:45 047 2 gusting 8 14.4
2019-Aug-17 08:30 187 1 gusting 6 13.9
2019-Aug-17 08:15 089 1 gusting 8 13.3
2019-Aug-17 08:00 034 0 gusting 5 13.3
2019-Aug-17 07:45 065 1 gusting 4 12.8
2019-Aug-17 07:30 199 1 gusting 6 12.8
2019-Aug-17 07:15 068 0 gusting 7 12.8
2019-Aug-17 07:00 081 0 gusting 4 12.8
2019-Aug-17 06:45 037 12.2
2019-Aug-17 06:30 092 0 gusting 6 12.2
2019-Aug-17 06:15 067 0 gusting 6 12.2
2019-Aug-17 06:00 252 12.2
2019-Aug-17 05:47 025 12.2
2019-Aug-17 05:31 086 1 gusting 5 12.2
2019-Aug-17 05:16 070 12.2
2019-Aug-17 05:01 356 0 gusting 6 12.2
2019-Aug-17 04:47 067 12.2
2019-Aug-17 04:32 269 0 gusting 6 12.2
2019-Aug-17 04:17 328 12.2
2019-Aug-17 04:01 051 0 gusting 2 12.2
2019-Aug-17 03:46 010 0 gusting 3 12.2
2019-Aug-17 03:31 351 0 gusting 2 12.2
2019-Aug-17 03:17 064 0 gusting 3 12.2
2019-Aug-17 03:01 060 0 gusting 3 12.2
2019-Aug-17 02:47 036 0 gusting 6 12.2
2019-Aug-17 02:31 295 12.2
2019-Aug-17 02:18 008 12.2
2019-Aug-17 02:02 097 12.2
2019-Aug-17 01:46 297 12.2
2019-Aug-17 01:31 020 12.8
2019-Aug-17 01:15 014 12.8
2019-Aug-17 01:02 148 12.8
2019-Aug-17 00:47 286 12.8
2019-Aug-17 00:31 007 12.8
2019-Aug-17 00:16 064 12.8
2019-Aug-17 00:01 341 0 gusting 3 12.8
2019-Aug-16 23:46 078 12.8
2019-Aug-16 23:30 110 0 gusting 5 13.3
2019-Aug-16 23:16 085 1 gusting 6 13.3
2019-Aug-16 23:01 053 0 gusting 5 13.3
2019-Aug-16 22:45 285 2 gusting 8 14.4
2019-Aug-16 22:30 096 1 gusting 6 14.4
2019-Aug-16 22:16 055 0 gusting 6 15.0
2019-Aug-16 22:00 066 1 gusting 6 15.0
2019-Aug-16 21:45 042 1 gusting 5 15.0
2019-Aug-16 21:31 139 2 gusting 6 15.0
2019-Aug-16 21:15 011 1 gusting 6 15.0
2019-Aug-16 21:01 077 0 gusting 6 15.0
2019-Aug-16 20:46 081 1 gusting 6 15.0
2019-Aug-16 20:30 071 1 gusting 7 15.0
2019-Aug-16 20:16 033 0 gusting 6 15.0
2019-Aug-16 20:01 069 0 gusting 5 15.0
2019-Aug-16 19:45 059 1 gusting 5 15.0
2019-Aug-16 19:30 330 15.0
2019-Aug-16 19:15 072 0 gusting 5 15.0
2019-Aug-16 19:00 100 15.0
2019-Aug-16 18:45 072 2 gusting 6 15.0
2019-Aug-16 18:30 120 1 gusting 6 15.0
2019-Aug-16 18:15 067 1 gusting 7 15.0
2019-Aug-16 18:00 088 3 gusting 9 15.0
2019-Aug-16 17:45 103 4 gusting 10 14.4
2019-Aug-16 17:30 068 2 gusting 8 14.4
2019-Aug-16 17:15 082 3 gusting 8 14.4
2019-Aug-16 17:00 090 3 gusting 9 14.4
2019-Aug-16 16:47 102 2 gusting 8 14.4
2019-Aug-16 16:31 072 1 gusting 6 14.4
2019-Aug-16 16:17 075 1 gusting 5 14.4
2019-Aug-16 16:02 070 0 gusting 5 14.4
2019-Aug-16 15:46 106 1 gusting 6 14.4
2019-Aug-16 15:32 051 3 gusting 9 13.9
2019-Aug-16 15:16 023 2 gusting 6 13.9
2019-Aug-16 15:01 077 3 gusting 8 13.9
2019-Aug-16 14:46 030 1 gusting 6 13.9
2019-Aug-16 14:31 095 1 gusting 6 13.9
2019-Aug-16 14:16 070 1 gusting 10 13.9
2019-Aug-16 14:00 061 1 gusting 6 13.3
2019-Aug-16 13:46 054 1 gusting 6 13.3
2019-Aug-16 13:31 080 0 gusting 6 13.3
2019-Aug-16 13:16 064 1 gusting 6 13.3
2019-Aug-16 13:00 084 1 gusting 8 13.3
2019-Aug-16 12:45 084 3 gusting 8 13.3
2019-Aug-16 12:31 078 2 gusting 6 13.3
2019-Aug-16 12:15 084 2 gusting 9 13.3
2019-Aug-16 12:00 071 4 gusting 8 13.3
2019-Aug-16 11:45 094 2 gusting 6 13.3
2019-Aug-16 11:31 101 2 gusting 9 13.3
2019-Aug-16 11:15 069 2 gusting 11 13.3
2019-Aug-16 11:00 098 2 gusting 8 13.3
2019-Aug-16 10:45 122 2 gusting 9 13.3
2019-Aug-16 10:30 239 2 gusting 8 13.3
2019-Aug-16 10:15 101 2 gusting 7 13.3
2019-Aug-16 10:00 077 3 gusting 9 12.8
2019-Aug-16 09:45 048 4 gusting 8 12.8
2019-Aug-16 09:31 046 3 gusting 7 12.8
2019-Aug-16 09:17 115 2 gusting 6 12.8
2019-Aug-16 09:02 032 2 gusting 9 12.8
2019-Aug-16 08:46 127 2 gusting 6 12.8
2019-Aug-16 08:31 101 2 gusting 8 12.8
2019-Aug-16 08:17 025 1 gusting 7 12.8
2019-Aug-16 08:01 089 1 gusting 6 12.8
2019-Aug-16 07:46 077 1 gusting 8 12.8
2019-Aug-16 07:31 110 2 gusting 7 12.8
2019-Aug-16 07:17 081 2 gusting 7 12.8
2019-Aug-16 07:01 089 2 gusting 8 12.8
2019-Aug-16 06:46 101 1 gusting 5 12.8
2019-Aug-16 06:31 051 2 gusting 6 12.8
2019-Aug-16 06:15 079 2 gusting 6 12.8
2019-Aug-16 06:01 075 1 gusting 3 12.8
2019-Aug-16 05:46 064 0 gusting 5 12.2
2019-Aug-16 05:31 098 1 gusting 6 12.2
2019-Aug-16 05:15 112 0 gusting 4 12.2
2019-Aug-16 05:00 079 11.7
2019-Aug-16 04:45 109 0 gusting 4 11.7
2019-Aug-16 04:30 075 11.7
2019-Aug-16 04:15 074 11.7
2019-Aug-16 04:00 070 11.7